TimeCST,TemperatureF,Dew PointF,Humidity,Sea Level PressureIn,VisibilityMPH,Wind Direction,Wind SpeedMPH,Gust SpeedMPH,PrecipitationIn,Events,Conditions,WindDirDegrees,DateUTC
12:13 AM,35.6,35.6,100,29.37,3.0,NW,4.6,-,0.01,Rain,Light Rain,320,2013-11-17 06:13:00
12:33 AM,35.6,33.8,93,29.37,2.0,NW,5.8,-,0.02,Rain,Light Rain,320,2013-11-17 06:33:00
12:53 AM,35.6,33.8,93,29.37,2.0,NW,5.8,-,0.02,,Drizzle,320,2013-11-17 06:53:00
1:13 AM,35.6,33.8,93,29.37,2.0,NW,6.9,-,N/A,,Light Drizzle,320,2013-11-17 07:13:00
1:33 AM,35.6,33.8,93,29.37,2.0,NW,5.8,-,0.01,,Drizzle,320,2013-11-17 07:33:00
1:53 AM,35.6,33.8,93,29.37,2.0,NNW,5.8,-,0.01,,Drizzle,330,2013-11-17 07:53:00
2:13 AM,35.6,33.8,93,29.37,2.5,NNW,5.8,-,N/A,Rain,Light Rain,330,2013-11-17 08:13:00
2:33 AM,35.6,33.8,93,29.37,2.0,NNW,5.8,-,N/A,Rain,Rain,330,2013-11-17 08:33:00
2:53 AM,35.6,33.8,93,29.38,2.5,NW,5.8,-,0.01,Rain,Rain,320,2013-11-17 08:53:00
3:13 AM,35.6,33.8,93,29.38,2.5,NW,6.9,-,0.01,Rain,Light Rain,320,2013-11-17 09:13:00
3:33 AM,35.6,33.8,93,29.38,4.0,NNW,6.9,-,0.01,Rain,Rain,330,2013-11-17 09:33:00
3:53 AM,33.8,33.8,100,29.38,5.0,NW,8.1,-,0.02,Rain,Light Rain,320,2013-11-17 09:53:00
4:13 AM,33.8,33.8,100,29.39,4.0,NNW,8.1,-,0.01,,Unknown,330,2013-11-17 10:13:00
4:33 AM,33.8,32.0,93,29.40,3.0,NNW,6.9,-,0.01,Snow,Light Snow,330,2013-11-17 10:33:00
4:53 AM,33.8,32.0,93,29.40,4.0,NNW,11.5,-,0.01,Snow,Light Snow,340,2013-11-17 10:53:00
5:13 AM,33.8,32.0,93,29.41,4.0,NNW,10.4,18.4,N/A,Snow,Light Snow,330,2013-11-17 11:13:00
5:33 AM,32.0,30.2,93,29.41,4.0,NNW,13.8,-,0.01,Snow,Light Snow,340,2013-11-17 11:33:00
5:53 AM,32.0,30.2,93,29.42,3.0,NNW,15.0,21.9,0.01,Snow,Light Snow,330,2013-11-17 11:53:00
6:13 AM,30.2,30.2,100,29.43,2.5,NNW,13.8,18.4,N/A,Snow,Light Snow,340,2013-11-17 12:13:00
6:33 AM,30.2,30.2,100,29.43,2.0,NNW,17.3,-,N/A,Snow,Light Snow,340,2013-11-17 12:33:00
6:53 AM,30.2,28.4,93,29.44,3.0,NNW,18.4,-,N/A,Snow,Light Snow,340,2013-11-17 12:53:00
7:14 AM,30.2,28.4,93,29.44,3.0,NNW,15.0,-,N/A,Snow,Light Snow,340,2013-11-17 13:14:00
7:33 AM,30.2,28.4,93,29.45,3.0,NNW,18.4,-,N/A,Snow,Light Snow,340,2013-11-17 13:33:00
7:53 AM,30.2,28.4,93,29.45,3.0,North,18.4,24.2,N/A,Snow,Light Snow,350,2013-11-17 13:53:00
8:13 AM,30.2,28.4,93,29.46,5.0,NNW,17.3,23.0,N/A,Snow,Light Snow,340,2013-11-17 14:13:00
8:33 AM,28.4,26.6,93,29.47,4.0,NNW,18.4,26.5,N/A,Snow,Light Snow,340,2013-11-17 14:33:00
8:51 AM,28.4,26.6,93,29.48,4.0,NNW,20.7,27.6,N/A,,Unknown,340,2013-11-17 14:51:00
9:13 AM,28.4,26.6,93,29.49,10.0,NNW,21.9,27.6,N/A,,Unknown,340,2013-11-17 15:13:00
9:33 AM,28.4,26.6,93,29.49,10.0,NNW,23.0,28.8,N/A,Snow,Light Snow,340,2013-11-17 15:33:00
9:53 AM,28.4,26.6,93,29.50,10.0,NNW,17.3,27.6,N/A,,Unknown,340,2013-11-17 15:53:00
10:13 AM,28.4,26.6,93,29.50,10.0,North,21.9,26.5,N/A,,Unknown,350,2013-11-17 16:13:00
10:33 AM,28.4,26.6,93,29.51,10.0,North,19.6,27.6,N/A,,Unknown,350,2013-11-17 16:33:00
10:53 AM,28.4,26.6,93,29.52,10.0,North,19.6,25.3,N/A,,Unknown,350,2013-11-17 16:53:00
11:13 AM,28.4,24.8,86,29.54,10.0,NNW,23.0,29.9,N/A,,Unknown,340,2013-11-17 17:13:00
11:33 AM,28.4,24.8,86,29.54,10.0,NNW,23.0,27.6,N/A,,Unknown,340,2013-11-17 17:33:00
11:54 AM,28.4,24.8,86,29.55,10.0,NNW,21.9,29.9,N/A,,Unknown,340,2013-11-17 17:54:00
12:13 PM,28.4,24.8,86,29.56,10.0,NNW,20.7,28.8,N/A,,Unknown,340,2013-11-17 18:13:00
12:33 PM,28.4,24.8,86,29.57,10.0,NNW,19.6,25.3,N/A,,Unknown,340,2013-11-17 18:33:00
12:54 PM,28.4,24.8,86,29.58,10.0,NNW,20.7,28.8,N/A,,Unknown,340,2013-11-17 18:54:00
1:13 PM,28.4,24.8,86,29.58,10.0,NNW,21.9,28.8,N/A,,Unknown,340,2013-11-17 19:13:00
1:33 PM,28.4,24.8,86,29.60,10.0,NNW,20.7,24.2,N/A,,Unknown,330,2013-11-17 19:33:00
1:53 PM,26.6,24.8,93,29.61,10.0,NNW,19.6,28.8,N/A,,Unknown,330,2013-11-17 19:53:00
2:13 PM,26.6,24.8,93,29.62,10.0,NNW,19.6,-,N/A,,Unknown,330,2013-11-17 20:13:00
2:34 PM,26.6,24.8,93,29.63,10.0,NNW,19.6,25.3,N/A,,Unknown,330,2013-11-17 20:34:00
2:53 PM,26.6,23.0,86,29.65,10.0,NNW,21.9,29.9,N/A,,Unknown,330,2013-11-17 20:53:00
3:13 PM,26.6,23.0,86,29.66,10.0,NNW,21.9,27.6,N/A,,Unknown,330,2013-11-17 21:13:00
3:33 PM,26.6,21.2,80,29.68,10.0,NNW,20.7,29.9,N/A,,Unknown,330,2013-11-17 21:33:00
3:53 PM,26.6,21.2,80,29.68,10.0,NNW,23.0,29.9,N/A,,Unknown,330,2013-11-17 21:53:00
4:13 PM,26.6,21.2,80,29.69,10.0,NNW,23.0,27.6,N/A,,Unknown,330,2013-11-17 22:13:00
4:34 PM,26.6,21.2,80,29.71,10.0,NNW,21.9,28.8,N/A,,Unknown,330,2013-11-17 22:34:00
4:53 PM,24.8,21.2,86,29.72,10.0,NNW,20.7,29.9,N/A,,Unknown,330,2013-11-17 22:53:00
5:13 PM,24.8,21.2,86,29.73,10.0,NNW,21.9,27.6,N/A,,Unknown,330,2013-11-17 23:13:00
5:34 PM,24.8,21.2,86,29.74,10.0,NNW,20.7,29.9,N/A,,Unknown,330,2013-11-17 23:34:00
5:53 PM,24.8,21.2,86,29.75,10.0,NNW,20.7,27.6,N/A,,Unknown,330,2013-11-17 23:53:00
6:13 PM,24.8,21.2,86,29.77,10.0,NNW,20.7,25.3,N/A,,Unknown,340,2013-11-18 00:13:00
6:34 PM,24.8,19.4,80,29.77,10.0,NNW,18.4,26.5,N/A,,Unknown,340,2013-11-18 00:34:00
6:53 PM,24.8,19.4,80,29.78,10.0,NNW,19.6,27.6,N/A,,Unknown,330,2013-11-18 00:53:00
7:13 PM,24.8,19.4,80,29.80,10.0,NNW,17.3,23.0,N/A,,Unknown,330,2013-11-18 01:13:00
7:34 PM,24.8,19.4,80,29.81,10.0,NNW,17.3,21.9,N/A,,Unknown,330,2013-11-18 01:34:00
7:53 PM,24.8,19.4,80,29.82,10.0,NNW,18.4,25.3,N/A,,Unknown,330,2013-11-18 01:53:00
8:13 PM,24.8,19.4,80,29.83,10.0,NNW,18.4,-,N/A,,Unknown,330,2013-11-18 02:13:00
8:32 PM,24.8,19.4,80,29.84,10.0,NNW,16.1,-,N/A,,Unknown,330,2013-11-18 02:32:00
8:53 PM,24.8,19.4,80,29.85,10.0,NNW,12.7,-,N/A,,Unknown,330,2013-11-18 02:53:00
9:13 PM,24.8,19.4,80,29.85,10.0,NNW,15.0,-,N/A,,Unknown,330,2013-11-18 03:13:00
9:33 PM,24.8,19.4,80,29.86,10.0,NNW,12.7,-,N/A,,Unknown,330,2013-11-18 03:33:00
9:53 PM,24.8,19.4,80,29.87,10.0,NW,15.0,-,N/A,,Unknown,320,2013-11-18 03:53:00
10:13 PM,24.8,19.4,80,29.88,10.0,NW,13.8,-,N/A,,Unknown,320,2013-11-18 04:13:00
10:33 PM,23.0,19.4,86,29.88,10.0,NNW,15.0,-,N/A,,Unknown,330,2013-11-18 04:33:00
10:53 PM,23.0,19.4,86,29.88,10.0,NNW,15.0,-,N/A,,Unknown,330,2013-11-18 04:53:00
11:13 PM,23.0,19.4,86,29.89,10.0,NNW,15.0,-,N/A,,Unknown,330,2013-11-18 05:13:00
11:33 PM,23.0,19.4,86,29.89,10.0,NW,13.8,-,N/A,,Unknown,320,2013-11-18 05:33:00
11:53 PM,23.0,19.4,86,29.90,10.0,NNW,15.0,19.6,N/A,,Unknown,330,2013-11-18 05:53:00